SCP
-0 -0 -0 -0 0 0 0 0 0 0 0 0 0 0 0 -0 0 0 0 0 0 0 0 0 0 0 0 0 0 0 0 0 0 0 0 0 0 0 0 0 0 0 0 0 0 0 0 0 0 0 0 0 0 0
0 0 -0 -0 -0 0 0 0 0 0 0 0 0 0 0 -0 -0 -0 0 0 0 0 0 0 0 0 0 0 0 0 0 0 0 0 0 0 0 0 0 0 0 0 0 0 0 0 0 0 0 0 0 0 0 0
0 0 0 0 0 0 0 0 0 0 0 0 0 0 0 0 0 -0 0 0 0 0 0 0 -0 -0 0 0 0 0 0 0 0 0 0 0 0 0 0 0 0 0 0 0 0 0 0 0 0 0 0 0 0 0
0 0 0 0 0 0 -0 0 0 0 0 0 0 0 0 0 0 0 0 0 0 0 0 0 0 0 0 0 0 0 0 -0 -0 -0 0 0 0 0 0 0 0 0 0 0 0 0 0 0 0 0 0 0 0 0
0 0 0 0 0 0 0 0 0 0 0 0 0 0 0 -0 0 0 0 0 0 0 0 0 0 0 0 0 0 0 0 0 0 0 0 0 -0 -0 -0 0 0 0 0 0 0 0 0 0 0 0 0 0 0 0
0 0 0 0 0 0 0 0 0 0 0 0 0 0 0 0 0 0 0 0 0 0 0 0 0 0 0 0 0 0 0 0 0 0 0 0 0 0 0 0 0 0 0 0 0 0 0 0 0 0 0 0 0 0
0 0 0 0 0 0 0 0 0 0 0 0 0 0 0 0 0 0 0 0 0 0 0 0 0 0 -0 -0 0 0 0 0 0 0 0 0 0 0 0 0 0 0 0 0 0 0 0 0 0 0 0 0 0 0
0 0 0 0 0 0 0 0 0 0 0 0 0 0 0 0 0 0 0 0 0 0 0 0 0 0 0 0 0 0 0 0 0 0 0 0 0 0 0 0 0 0 0 0 0 0 0 0 0 0 0 0 0 0
0 0 0 0 0 0 0 0 0 0 0 0 0 0 0 0 0 0 0 0 0 0 0 0 0 0 0 0 0 0 0 0 0 0 0 0 0 0 0 0 0 0 0 0 0 0 0 0 0 0 0 0 0 0
0 0 0 0 0 0 0 0 0 0 0 0 0 0 0 0 0 0 0 0 0 0 0 0 0 0 0 0 0 0 0 -0 0 0 0 0 0 0 0 0 0 0 0 0 0 0 0 0 0 0 0 0 0 0
0 0 0 0 0 0 0 0 0 0 0 0 0 0 0 0 0 0 0 0 0 0 0 0 0 0 0 0 0 -0 0 0 0 0 0 0 0 0 0 0 0 0 0 0 0 0 0 0 0 0 0 0 0 0
0 0 0 0 0 0 0 0 0 0 0 0 0 0 0 0 0 0 0 0 0 0 0 0 0 0 0 0 -0 -0 0 0 0 0 0 0 0 0 0 -0 0 -0 -0 0 -0 0 0 0 0 0 0 0 0 0
0 0 0 0 0 0 0 0 0 0 0 0 0 0 0 0 0 0 0 0 0 0 0 0 0 0 0 0 0 -0 -0 0 0 0 0 0 0 -0 -0 -0 -0 -0 -0 -0 -0 -0 0 0 -0 -0 0 -0 0 0
0 0 0 0 0 0 0 0 0 0 0 0 -0 -0 -0 0 0 0 0 0 0 0 0 0 0 0 0 0 0 0 0 0 0 0 0 0 -0 -0 -0 -0 -0 -0 -0 -0 -0 0 0 0 0 -0 0 0 0 0
0 0 0 0 0 0 0 0 0 0 0 0 0 0 0 0 0 0 0 0 0 0 0 0 0 0 0 0 0 0 0 0 0 0 0 -0 -0 -0 -0 -0 -0 -0 -0 -0 0 0 0 0 0 0 0 0 0 0
0 0 0 0 0 0 0 0 0 0 0 0 0 0 0 0 0 0 0 0 0 0 0 0 0 0 0 0 0 0 0 0 0 0 -0 -0 -0 -0 -0 -0 -0 -0 -0 0 0 0 0 0 0 0 0 0 0 0
0 0 0 0 0 0 0 0 0 0 0 0 0 0 0 0 0 0 0 0 0 0 0 0 0 0 0 0 0 0 0 0 -0 -0 -0 -0 -0 -0 -0 -0 -0 0 0 0 -0 0 0 0 0 0 0 0 0 0
0 0 0 0 0 0 0 0 0 0 0 0 0 0 0 0 0 0 0 0 0 0 0 0 0 0 0 0 0 0 -0 -0 -0 -0 -0 -0 -0 -0 -0 -0 0 0 0 -0 -0 -0 -0 -0 0 0 0 0 0 0
0 0 0 0 0 0 0 0 0 0 0 0 0 0 0 0 0 0 0 0 0 0 0 0 0 0 0 0 0 -0 -0 -0 -0 -0 -0 -0 -0 -0 0 -0 -0 -0 -0 -0 -0 -0 -0 -0 -0 0 0 -0 -0 -0
0 0 0 0 0 0 0 0 0 0 0 0 0 0 0 0 0 0 0 0 0 0 0 0 0 0 0 0 0 -0 -0 -0 -0 -0 -0 0 0 -0 -0 -0 0 0 -0 0 -0 -0 -0 -0 -0 -0 -0 -0 -0 -0
0 0 0 0 0 0 0 0 0 0 0 0 0 0 0 0 0 0 0 0 0 0 0 0 0 -0 -0 -0 -0 -0 -0 -0 -0 -0 0 0 -0 -0 -0 -0 -0 -0 0 0 0 -0 -0 -0 -0 -0 -0 -0 -0 -0
0 0 0 0 0 0 0 0 0 0 0 0 0 0 0 0 0 0 0 0 0 0 0 -0 -0 -0 -0 0 0 0 0 0 0 0 0 0 0 0 0 -0 -0 -0 -0 -0 -0 -0 -0 -0 -0 -0 -0 -0 -0 -0
0 0 0 0 0 0 0 0 0 0 0 0 0 0 0 0 0 -0 0 0 0 -0 -0 -0 0 0 0 -0 -0 0 -0 -0 0 0 0 0 0 0 0 -0 -0 -0 -0 -0 0 0 0 -0 0 0 0 0 0 0
0 0 0 0 -0 0 0 0 0 0 0 0 0 0 0 0 -0 0 0 -0 -0 0 0 -0 0 0 0 0 0 -0 -0 0 0 0 0 0 0 0 0 -0 -0 -0 -0 0 0 0 0 0 -0 0 0 0 0 0
0 0 0 -0 -0 -0 0 0 0 0 0 0 0 0 0 -0 0 0 -0 -0 0 0 0 -0 0 0 0 0 0 -0 -0 0 0 0 0 0 0 0 0 -0 -0 -0 -0 0 -0 0 0 0 0 0 0 0 0 0
-0 0 0 0 0 0 0 0 0 0 0 0 0 -0 0 0 0 -0 -0 0 0 0 0 0 -0 0 0 0 0 0 0 0 0 0 0 0 0 0 0 0 0 0 0 0 0 0 0 0 0 0 0 0 0 0
-0 0 0 0 0 0 0 0 0 -0 -0 -0 0 0 0 0 -0 -0 0 0 0 0 0 0 0 0 0 0 0 0 0 0 0 0 0 0 0 0 0 0 0 0 0 0 0 0 0 0 0 0 0 0 0 0
0 0 0 0 0 0 0 0 0 0 0 -0 -0 0 -0 -0 -0 0 0 0 0 0 0 0 0 0 0 0 0 0 0 0 0 -0 -0 0 0 0 0 0 0 0 0 0 0 0 0 0 0 0 0 0 0 0
0 -0 -0 -0 -0 -0 -0 -0 0 0 -0 0 -0 0 0 0 0 0 0 0 0 -0 -0 -0 0 0 0 0 0 0 0 0 0 0 0 0 0 0 0 0 0 0 0 0 0 0 0 0 0 0 0 0 0 0
0 0 -0 -0 -0 -0 -0 -0 0 0 0 0 0 0 0 -0 -0 0 0 -0 -0 -0 -0 -0 -0 0 0 0 0 0 -0 -0 -0 -0 0 0 0 0 0 0 0 0 0 0 0 0 0 0 0 0 0 0 0 0
-0 -0 -0 -0 -0 -0 -0 -0 -0 0 0 0 0 0 0 0 -0 -0 -0 -0 -0 0 0 0 0 0 0 0 0 0 0 -0 0 0 0 0 0 0 0 0 0 0 0 0 0 0 0 0 0 0 0 0 0 0
-0 0 -0 -0 0 0 0 0 0 0 0 0 -0 0 -0 -0 -0 0 0 0 0 0 -0 0 0 0 0 0 0 0 0 0 0 0 0 0 0 0 0 0 0 0 0 0 0 0 0 0 0 0 0 0 0 0
0 0 0 0 0 0 -0 0 0 0 0 -0 -0 -0 -0 -0 -0 0 0 0 0 0 0 0 0 0 0 0 0 0 0 0 0 0 0 0 0 0 0 0 0 0 0 0 0 0 0 0 0 0 0 0 0 0
Wind_Speed_500mb
59 57 60 63 64 67 60 62 61 58 53 53 51 52 45 38 37 33 43 37 36 19 32 52 47 31 33 11 7 8 11 14 15 26 22 25 20 27 25 33 46 38 21 19 27 31 41 36 22 41 62 85 76 71
63 62 61 63 65 65 66 64 62 60 58 54 53 51 48 49 42 36 41 27 28 36 33 36 59 59 43 48 29 13 20 12 12 13 16 14 16 11 37 35 39 37 39 42 33 19 14 41 51 104 108 86 82 75
61 64 66 62 62 64 65 66 65 61 60 61 55 51 51 51 45 46 46 38 37 33 49 50 48 60 66 86 81 36 42 22 17 32 5 7 8 6 17 32 43 34 45 38 49 47 24 36 74 90 100 101 120 89
61 63 64 65 68 65 64 65 65 65 63 61 58 58 53 54 53 47 45 34 34 19 10 19 33 27 23 41 54 46 60 71 67 66 22 19 21 9 9 10 14 9 4 32 45 48 56 72 82 91 90 83 84 91
59 61 64 65 67 71 66 62 64 66 63 63 61 56 56 55 58 50 45 44 48 42 8 25 50 83 73 57 64 62 71 74 58 21 16 25 13 14 14 21 25 32 41 37 46 47 39 52 75 89 93 89 98 102
59 61 62 66 64 67 68 69 61 63 60 58 61 61 59 59 49 51 34 53 59 61 22 8 10 34 65 68 67 55 41 52 40 20 12 25 61 30 27 42 50 75 88 90 53 95 100 105 106 105 89 97 103 103
57 58 61 64 64 63 62 66 62 59 57 54 57 58 55 52 48 49 14 8 11 28 11 7 7 10 19 28 26 52 60 47 40 25 10 28 32 55 36 45 60 96 108 97 77 68 72 92 83 101 99 105 103 98
54 57 59 62 62 60 56 58 54 50 51 48 48 48 49 48 49 50 60 47 42 41 21 6 6 9 41 27 15 49 43 42 36 39 34 25 37 24 30 45 67 93 104 101 106 110 113 119 120 120 116 103 94 94
51 51 55 55 52 50 50 49 45 42 39 38 36 37 38 43 32 57 47 41 40 37 5 5 7 11 5 11 9 20 24 15 30 19 25 25 27 16 31 47 50 75 75 87 99 102 104 96 86 93 90 85 77 77
50 48 49 45 41 39 39 40 39 36 36 33 31 20 13 19 31 26 13 14 19 18 16 7 14 10 23 24 7 4 10 8 5 13 19 15 30 53 81 79 45 37 41 54 49 45 71 80 84 83 88 90 87 91
49 44 43 38 36 33 24 28 33 35 32 35 18 17 19 18 23 17 8 5 2 3 15 21 30 15 19 5 8 11 6 5 5 10 10 6 12 30 51 49 53 59 62 72 61 74 87 74 73 89 95 101 98 94
45 38 36 33 29 25 25 30 30 31 35 22 18 21 22 22 9 7 7 3 6 12 9 8 14 23 8 10 8 5 8 8 11 1 4 7 4 37 55 64 67 66 81 94 83 83 80 97 100 84 77 78 87 87
32 29 25 23 21 17 19 22 20 26 28 30 16 17 15 7 6 12 11 9 4 6 12 11 5 13 13 23 4 6 10 9 4 5 11 7 16 52 65 72 75 67 79 93 97 88 89 86 85 64 77 74 67 55
27 26 23 20 18 21 24 27 27 22 16 4 9 8 9 6 7 10 11 8 5 6 3 3 3 7 12 1 7 7 11 1 11 7 13 7 37 70 75 75 82 97 94 86 91 94 86 76 66 68 55 46 35 30
23 21 18 17 24 20 9 11 15 11 14 13 8 8 9 9 9 1 6 3 11 14 17 9 10 5 6 5 8 5 9 13 8 8 6 26 66 67 77 79 80 84 91 92 93 87 85 43 33 23 12 18 23 40
26 25 12 13 6 8 13 16 17 11 6 8 10 2 2 5 6 6 11 7 18 22 16 6 5 4 11 8 3 15 8 10 3 6 37 63 67 73 77 80 79 80 76 76 67 57 44 23 7 16 23 28 39 51
26 13 21 25 24 27 17 15 10 14 14 9 7 5 9 18 8 8 6 8 20 11 0 3 8 16 8 6 13 5 6 9 14 47 55 57 66 79 86 78 77 77 73 67 49 30 15 4 12 23 38 38 43 56
24 28 27 25 17 15 14 13 11 10 9 8 4 8 18 17 12 11 14 16 9 6 5 2 9 5 7 8 5 6 11 40 45 54 61 70 76 72 67 72 73 60 56 49 34 21 18 26 39 49 51 55 63 66
25 28 18 9 12 6 7 11 14 6 5 14 25 23 21 26 36 21 15 10 13 9 5 7 8 5 6 5 10 38 47 47 55 67 68 65 57 63 63 58 52 42 36 33 34 37 38 37 40 42 45 53 62 56
25 21 19 19 14 12 10 4 4 2 5 9 17 16 17 16 12 32 34 23 17 10 11 7 0 4 16 43 48 52 55 55 55 59 59 57 60 54 49 46 42 31 25 26 30 34 39 42 43 42 45 53 57 55
16 17 7 10 17 8 6 9 9 8 9 16 24 9 14 15 12 15 16 18 17 9 4 8 31 43 47 48 44 44 46 45 46 43 49 54 53 35 37 35 34 36 39 41 44 45 48 51 47 46 49 53 53 52
10 5 11 14 6 7 10 15 6 7 9 17 11 11 9 5 5 12 8 21 8 4 15 34 42 46 44 39 37 30 30 27 20 21 22 32 40 41 41 40 43 47 49 48 49 52 53 52 53 56 60 62 57 57
12 8 9 12 8 13 7 13 9 16 6 5 7 6 5 4 6 8 6 8 8 24 34 35 35 27 25 28 25 22 18 19 23 27 29 32 41 43 45 46 49 51 52 54 54 57 59 57 59 61 60 58 59 59
11 12 16 15 24 7 10 12 12 10 10 8 6 6 6 4 4 6 6 4 20 34 39 38 37 36 29 35 42 41 36 30 28 30 34 38 40 53 59 57 54 52 51 49 54 56 56 55 52 52 51 52 52 52
10 22 17 14 20 12 12 10 11 7 7 7 6 5 5 9 4 5 3 8 29 37 41 37 35 37 34 37 41 43 46 54 56 56 52 47 48 53 58 66 65 61 54 55 56 53 53 49 48 47 46 44 44 43
16 16 10 5 9 8 6 7 8 8 8 6 6 9 7 4 6 4 2 15 18 29 34 33 32 31 36 38 43 47 46 50 56 65 61 61 62 64 65 68 68 66 60 55 50 50 49 46 44 42 43 41 36 31
12 8 12 15 6 6 8 10 9 6 8 8 6 8 4 6 4 2 1 11 14 19 21 24 31 34 33 29 24 26 33 43 52 52 50 51 54 56 58 58 58 52 47 47 47 46 43 41 39 37 34 31 31 29
10 17 7 18 12 12 7 5 6 4 3 7 5 5 3 4 3 5 4 6 10 12 15 19 25 30 32 33 31 28 26 27 28 29 35 39 40 41 41 40 37 35 36 37 37 35 34 32 30 27 24 23 22 20
11 21 5 9 7 10 5 4 2 3 9 2 4 2 2 3 3 8 11 13 12 9 9 13 18 20 20 22 25 26 23 22 21 26 30 31 30 31 29 27 25 24 23 22 22 21 20 18 17 16 15 14 12 10
13 20 6 4 7 5 7 9 8 9 5 1 3 1 1 3 8 15 14 11 8 6 6 10 14 17 19 21 22 21 25 26 26 27 27 30 29 26 25 23 20 18 16 15 14 15 15 14 13 13 12 11 11 11
20 10 6 8 3 4 13 13 5 4 3 2 4 1 1 2 9 15 16 14 12 7 3 6 15 20 21 21 21 20 18 23 24 24 23 23 24 25 24 23 22 21 20 20 19 18 17 16 16 16 16 16 16 16
16 13 4 4 4 7 8 9 5 2 2 5 3 3 4 5 7 10 16 25 22 18 12 12 15 16 17 19 23 23 23 24 25 27 29 29 28 29 29 27 24 23 24 24 24 23 21 20 20 20 19 19 19 19
4 6 7 4 7 6 14 16 15 9 3 3 3 5 3 5 9 6 8 16 20 19 18 14 11 14 20 22 26 24 26 27 28 30 33 36 39 38 35 33 31 29 28 27 27 28 28 28 27 26 26 26 25 25
Wind_Direction_500mb
285 287 286 283 280 282 283 275 273 272 274 276 279 270 267 276 271 274 264 260 266 270 272 274 279 272 299 302 267 335 212 210 191 219 231 231 233 221 227 224 225 226 199 211 230 240 249 218 175 208 230 244 254 261
287 283 282 284 281 277 278 279 276 272 269 269 272 275 278 258 261 258 265 270 270 264 266 268 283 271 272 276 290 279 308 326 244 235 221 221 233 196 220 232 217 231 215 224 204 216 213 199 215 222 235 243 258 257
288 284 278 279 283 281 275 273 276 275 272 267 266 267 272 278 268 260 261 268 265 269 287 264 264 278 267 269 274 246 269 274 254 249 275 299 282 337 237 231 231 220 238 243 254 254 238 225 223 232 231 234 245 258
293 288 283 278 274 276 277 271 268 269 270 270 263 262 267 269 276 263 258 267 263 262 255 278 285 268 265 257 254 258 265 274 277 284 280 265 266 309 273 309 289 244 332 253 260 262 261 256 245 242 245 244 251 258
294 294 291 282 277 272 272 275 270 265 266 267 266 263 267 269 273 269 260 252 255 239 236 274 282 282 288 283 265 272 273 276 277 289 276 275 273 275 257 261 253 255 253 250 253 255 249 260 260 260 255 257 257 259
290 291 291 288 278 275 271 267 270 264 262 261 263 265 264 263 266 268 258 256 249 245 258 245 250 273 283 285 280 288 277 270 246 247 258 254 263 276 267 267 274 280 271 265 274 277 268 267 265 268 271 270 263 255
290 292 291 289 283 276 269 265 264 263 260 260 262 263 263 259 257 245 231 310 241 204 254 297 301 239 263 278 281 293 295 279 254 255 242 259 253 249 262 268 274 273 275 274 279 293 283 274 271 274 272 271 268 269
288 290 291 289 282 277 271 263 260 261 259 263 263 263 262 262 260 253 256 259 252 246 234 254 260 308 276 269 266 282 270 274 258 258 263 261 267 257 260 261 267 270 272 270 269 271 270 273 274 270 269 270 268 263
286 288 291 290 285 279 272 259 252 253 256 262 266 268 267 256 251 258 269 268 252 236 241 162 157 266 203 233 239 287 267 271 257 238 247 253 254 240 256 257 260 267 268 274 276 270 267 264 267 273 270 263 255 255
296 288 290 294 294 289 266 249 245 252 256 260 261 258 225 230 245 239 213 202 205 213 235 200 223 243 264 290 287 356 261 224 249 242 255 216 249 250 257 267 305 346 335 334 336 301 300 296 288 280 274 269 263 260
290 287 286 290 292 285 283 250 248 254 257 260 204 214 228 214 190 191 162 164 203 262 218 229 230 242 258 248 264 239 247 251 271 263 164 264 249 259 6 349 340 329 329 318 313 303 302 291 297 282 272 270 265 257
284 283 283 278 283 299 275 260 256 251 245 244 241 239 196 189 170 167 162 3 169 218 217 174 219 195 181 200 222 286 306 288 263 281 93 262 18 354 347 340 334 331 330 324 322 311 301 295 286 285 285 276 270 262
285 281 279 281 292 297 307 307 278 256 249 248 220 194 173 185 149 165 197 264 295 221 205 185 218 189 209 230 225 202 231 252 346 239 231 224 353 342 336 332 329 328 328 328 321 318 311 304 300 289 284 285 280 257
285 272 270 274 298 296 287 285 275 269 266 188 182 224 190 177 215 191 199 207 228 14 56 195 251 185 224 73 212 199 242 211 241 237 238 351 341 332 332 330 330 328 328 323 320 323 318 310 304 292 285 272 243 199
301 302 275 285 291 283 298 311 317 247 209 205 217 229 202 221 233 30 258 249 341 346 4 353 293 193 256 228 205 256 263 227 233 257 308 322 322 322 324 325 325 324 323 323 328 327 329 300 268 260 236 219 190 170
279 285 285 289 234 257 277 299 292 284 239 231 227 168 52 59 305 89 23 54 1 341 326 212 242 12 245 209 224 234 278 247 315 292 313 315 316 319 319 320 321 319 317 318 326 329 325 329 35 119 139 140 150 162
276 267 247 260 274 287 282 274 255 210 213 206 242 111 106 70 76 89 41 4 350 350 176 325 240 225 302 252 249 42 275 332 320 309 308 309 311 314 317 318 321 325 329 334 337 341 348 41 133 128 115 122 140 141
275 277 281 293 309 304 277 217 215 229 224 187 149 92 84 78 81 48 12 4 24 26 13 284 325 279 266 282 338 3 310 312 309 307 310 312 316 323 322 321 328 333 336 347 359 22 72 99 105 104 115 125 123 118
282 298 302 273 223 233 248 212 208 209 129 97 98 87 88 87 59 57 40 69 81 65 81 31 50 355 304 306 316 316 315 314 314 314 311 315 321 324 326 334 339 343 351 9 34 53 69 83 96 111 117 117 110 117
290 285 260 259 206 206 228 208 254 102 89 107 102 85 81 79 81 49 52 66 73 53 42 43 112 255 281 294 298 296 298 305 310 312 315 324 331 336 343 354 353 1 25 47 62 78 83 88 92 99 106 110 117 119
282 258 261 163 183 210 78 22 46 52 80 89 120 81 104 84 49 35 37 30 61 40 353 311 308 306 308 310 315 310 303 311 310 305 306 320 336 352 9 21 28 44 54 62 66 68 76 80 87 96 104 105 110 115
215 195 151 164 112 86 79 33 37 16 63 112 95 77 71 58 35 29 42 46 60 326 318 317 316 321 321 327 326 326 323 325 334 347 1 360 10 24 33 35 45 50 57 60 66 71 77 84 92 97 101 104 109 112
134 121 72 43 88 46 3 24 53 19 55 52 67 60 45 58 63 49 76 57 14 344 343 344 349 354 352 0 9 15 13 22 31 34 37 34 43 53 54 55 60 58 62 66 73 78 81 87 91 93 97 101 105 109
101 60 35 39 27 28 1 29 30 25 40 26 47 65 45 40 60 60 74 18 344 358 9 15 16 12 32 33 28 33 43 50 60 60 55 57 45 49 55 57 60 66 71 75 79 82 85 88 91 94 97 101 104 106
89 12 26 5 17 26 32 18 0 18 53 14 52 52 23 359 70 60 44 344 351 1 10 21 32 38 28 42 47 53 58 61 60 63 61 66 74 73 67 63 60 61 63 69 69 73 78 82 84 86 88 90 95 99
69 14 50 351 358 56 3 48 28 8 5 49 33 328 330 68 69 66 6 337 349 5 9 13 13 31 44 46 49 53 57 66 68 65 60 60 60 61 61 58 57 55 56 59 63 67 70 72 76 80 82 81 79 85
54 340 29 29 24 63 52 40 36 47 41 23 354 337 354 72 96 154 313 5 19 28 35 40 51 51 48 49 54 55 57 61 64 64 60 57 57 56 56 55 53 51 54 57 58 59 62 65 69 70 75 83 89 89
69 33 45 343 41 39 106 56 54 32 299 327 297 19 66 152 146 184 153 82 80 74 64 58 56 56 55 53 52 52 56 56 59 65 63 57 57 56 58 58 58 57 55 57 59 58 58 60 62 63 66 67 70 72
39 353 6 19 30 50 63 109 213 12 332 240 149 216 232 232 173 146 136 126 116 100 77 57 46 37 32 32 34 35 37 39 39 46 47 42 40 38 38 37 35 32 30 32 31 34 37 36 37 39 43 48 51 55
360 2 72 52 65 43 22 20 343 345 14 93 167 118 43 145 157 153 149 144 139 120 67 38 26 15 10 7 6 4 12 16 19 23 23 18 13 10 9 8 6 2 358 353 347 340 338 333 327 319 312 307 304 297
346 351 66 51 98 40 340 335 304 326 337 23 42 319 237 209 215 208 200 197 204 228 284 347 348 342 341 342 349 357 1 3 6 7 4 359 353 351 350 349 345 343 343 340 336 328 321 319 315 310 308 306 302 299
13 34 92 57 310 346 353 5 340 279 263 213 243 270 265 257 254 226 229 220 226 235 256 288 321 336 345 349 348 346 350 350 349 348 346 344 342 341 339 337 334 329 326 323 321 319 317 314 310 307 304 303 303 303
1 16 35 11 11 12 358 350 20 359 324 318 305 320 306 271 248 270 274 239 238 246 255 272 281 320 334 337 341 335 334 337 339 339 336 332 328 328 326 324 321 319 317 314 311 308 305 304 304 303 302 301 300 300
Wind_Speed_850mb
59 57 60 63 64 67 60 62 61 58 53 53 51 52 45 38 37 33 43 37 36 19 32 52 47 31 33 11 7 8 11 14 15 26 22 25 20 27 25 33 46 38 21 19 27 31 41 36 22 41 62 85 76 71
63 62 61 63 65 65 66 64 62 60 58 54 53 51 48 49 42 36 41 27 28 36 33 36 59 59 43 48 29 13 20 12 12 13 16 14 16 11 37 35 39 37 39 42 33 19 14 41 51 104 108 86 82 75
61 64 66 62 62 64 65 66 65 61 60 61 55 51 51 51 45 46 46 38 37 33 49 50 48 60 66 86 81 36 42 22 17 32 5 7 8 6 17 32 43 34 45 38 49 47 24 36 74 90 100 101 120 89
61 63 64 65 68 65 64 65 65 65 63 61 58 58 53 54 53 47 45 34 34 19 10 19 33 27 23 41 54 46 60 71 67 66 22 19 21 9 9 10 14 9 4 32 45 48 56 72 82 91 90 83 84 91
59 61 64 65 67 71 66 62 64 66 63 63 61 56 56 55 58 50 45 44 48 42 8 25 50 83 73 57 64 62 71 74 58 21 16 25 13 14 14 21 25 32 41 37 46 47 39 52 75 89 93 89 98 102
59 61 62 66 64 67 68 69 61 63 60 58 61 61 59 59 49 51 34 53 59 61 22 8 10 34 65 68 67 55 41 52 40 20 12 25 61 30 27 42 50 75 88 90 53 95 100 105 106 105 89 97 103 103
57 58 61 64 64 63 62 66 62 59 57 54 57 58 55 52 48 49 14 8 11 28 11 7 7 10 19 28 26 52 60 47 40 25 10 28 32 55 36 45 60 96 108 97 77 68 72 92 83 101 99 105 103 98
54 57 59 62 62 60 56 58 54 50 51 48 48 48 49 48 49 50 60 47 42 41 21 6 6 9 41 27 15 49 43 42 36 39 34 25 37 24 30 45 67 93 104 101 106 110 113 119 120 120 116 103 94 94
51 51 55 55 52 50 50 49 45 42 39 38 36 37 38 43 32 57 47 41 40 37 5 5 7 11 5 11 9 20 24 15 30 19 25 25 27 16 31 47 50 75 75 87 99 102 104 96 86 93 90 85 77 77
50 48 49 45 41 39 39 40 39 36 36 33 31 20 13 19 31 26 13 14 19 18 16 7 14 10 23 24 7 4 10 8 5 13 19 15 30 53 81 79 45 37 41 54 49 45 71 80 84 83 88 90 87 91
49 44 43 38 36 33 24 28 33 35 32 35 18 17 19 18 23 17 8 5 2 3 15 21 30 15 19 5 8 11 6 5 5 10 10 6 12 30 51 49 53 59 62 72 61 74 87 74 73 89 95 101 98 94
45 38 36 33 29 25 25 30 30 31 35 22 18 21 22 22 9 7 7 3 6 12 9 8 14 23 8 10 8 5 8 8 11 1 4 7 4 37 55 64 67 66 81 94 83 83 80 97 100 84 77 78 87 87
32 29 25 23 21 17 19 22 20 26 28 30 16 17 15 7 6 12 11 9 4 6 12 11 5 13 13 23 4 6 10 9 4 5 11 7 16 52 65 72 75 67 79 93 97 88 89 86 85 64 77 74 67 55
27 26 23 20 18 21 24 27 27 22 16 4 9 8 9 6 7 10 11 8 5 6 3 3 3 7 12 1 7 7 11 1 11 7 13 7 37 70 75 75 82 97 94 86 91 94 86 76 66 68 55 46 35 30
23 21 18 17 24 20 9 11 15 11 14 13 8 8 9 9 9 1 6 3 11 14 17 9 10 5 6 5 8 5 9 13 8 8 6 26 66 67 77 79 80 84 91 92 93 87 85 43 33 23 12 18 23 40
26 25 12 13 6 8 13 16 17 11 6 8 10 2 2 5 6 6 11 7 18 22 16 6 5 4 11 8 3 15 8 10 3 6 37 63 67 73 77 80 79 80 76 76 67 57 44 23 7 16 23 28 39 51
26 13 21 25 24 27 17 15 10 14 14 9 7 5 9 18 8 8 6 8 20 11 0 3 8 16 8 6 13 5 6 9 14 47 55 57 66 79 86 78 77 77 73 67 49 30 15 4 12 23 38 38 43 56
24 28 27 25 17 15 14 13 11 10 9 8 4 8 18 17 12 11 14 16 9 6 5 2 9 5 7 8 5 6 11 40 45 54 61 70 76 72 67 72 73 60 56 49 34 21 18 26 39 49 51 55 63 66
25 28 18 9 12 6 7 11 14 6 5 14 25 23 21 26 36 21 15 10 13 9 5 7 8 5 6 5 10 38 47 47 55 67 68 65 57 63 63 58 52 42 36 33 34 37 38 37 40 42 45 53 62 56
25 21 19 19 14 12 10 4 4 2 5 9 17 16 17 16 12 32 34 23 17 10 11 7 0 4 16 43 48 52 55 55 55 59 59 57 60 54 49 46 42 31 25 26 30 34 39 42 43 42 45 53 57 55
16 17 7 10 17 8 6 9 9 8 9 16 24 9 14 15 12 15 16 18 17 9 4 8 31 43 47 48 44 44 46 45 46 43 49 54 53 35 37 35 34 36 39 41 44 45 48 51 47 46 49 53 53 52
10 5 11 14 6 7 10 15 6 7 9 17 11 11 9 5 5 12 8 21 8 4 15 34 42 46 44 39 37 30 30 27 20 21 22 32 40 41 41 40 43 47 49 48 49 52 53 52 53 56 60 62 57 57
12 8 9 12 8 13 7 13 9 16 6 5 7 6 5 4 6 8 6 8 8 24 34 35 35 27 25 28 25 22 18 19 23 27 29 32 41 43 45 46 49 51 52 54 54 57 59 57 59 61 60 58 59 59
11 12 16 15 24 7 10 12 12 10 10 8 6 6 6 4 4 6 6 4 20 34 39 38 37 36 29 35 42 41 36 30 28 30 34 38 40 53 59 57 54 52 51 49 54 56 56 55 52 52 51 52 52 52
10 22 17 14 20 12 12 10 11 7 7 7 6 5 5 9 4 5 3 8 29 37 41 37 35 37 34 37 41 43 46 54 56 56 52 47 48 53 58 66 65 61 54 55 56 53 53 49 48 47 46 44 44 43
16 16 10 5 9 8 6 7 8 8 8 6 6 9 7 4 6 4 2 15 18 29 34 33 32 31 36 38 43 47 46 50 56 65 61 61 62 64 65 68 68 66 60 55 50 50 49 46 44 42 43 41 36 31
12 8 12 15 6 6 8 10 9 6 8 8 6 8 4 6 4 2 1 11 14 19 21 24 31 34 33 29 24 26 33 43 52 52 50 51 54 56 58 58 58 52 47 47 47 46 43 41 39 37 34 31 31 29
10 17 7 18 12 12 7 5 6 4 3 7 5 5 3 4 3 5 4 6 10 12 15 19 25 30 32 33 31 28 26 27 28 29 35 39 40 41 41 40 37 35 36 37 37 35 34 32 30 27 24 23 22 20
11 21 5 9 7 10 5 4 2 3 9 2 4 2 2 3 3 8 11 13 12 9 9 13 18 20 20 22 25 26 23 22 21 26 30 31 30 31 29 27 25 24 23 22 22 21 20 18 17 16 15 14 12 10
13 20 6 4 7 5 7 9 8 9 5 1 3 1 1 3 8 15 14 11 8 6 6 10 14 17 19 21 22 21 25 26 26 27 27 30 29 26 25 23 20 18 16 15 14 15 15 14 13 13 12 11 11 11
20 10 6 8 3 4 13 13 5 4 3 2 4 1 1 2 9 15 16 14 12 7 3 6 15 20 21 21 21 20 18 23 24 24 23 23 24 25 24 23 22 21 20 20 19 18 17 16 16 16 16 16 16 16
16 13 4 4 4 7 8 9 5 2 2 5 3 3 4 5 7 10 16 25 22 18 12 12 15 16 17 19 23 23 23 24 25 27 29 29 28 29 29 27 24 23 24 24 24 23 21 20 20 20 19 19 19 19
4 6 7 4 7 6 14 16 15 9 3 3 3 5 3 5 9 6 8 16 20 19 18 14 11 14 20 22 26 24 26 27 28 30 33 36 39 38 35 33 31 29 28 27 27 28 28 28 27 26 26 26 25 25
Wind_Direction_850mb
285 287 286 283 280 282 283 275 273 272 274 276 279 270 267 276 271 274 264 260 266 270 272 274 279 272 299 302 267 335 212 210 191 219 231 231 233 221 227 224 225 226 199 211 230 240 249 218 175 208 230 244 254 261
287 283 282 284 281 277 278 279 276 272 269 269 272 275 278 258 261 258 265 270 270 264 266 268 283 271 272 276 290 279 308 326 244 235 221 221 233 196 220 232 217 231 215 224 204 216 213 199 215 222 235 243 258 257
288 284 278 279 283 281 275 273 276 275 272 267 266 267 272 278 268 260 261 268 265 269 287 264 264 278 267 269 274 246 269 274 254 249 275 299 282 337 237 231 231 220 238 243 254 254 238 225 223 232 231 234 245 258
293 288 283 278 274 276 277 271 268 269 270 270 263 262 267 269 276 263 258 267 263 262 255 278 285 268 265 257 254 258 265 274 277 284 280 265 266 309 273 309 289 244 332 253 260 262 261 256 245 242 245 244 251 258
294 294 291 282 277 272 272 275 270 265 266 267 266 263 267 269 273 269 260 252 255 239 236 274 282 282 288 283 265 272 273 276 277 289 276 275 273 275 257 261 253 255 253 250 253 255 249 260 260 260 255 257 257 259
290 291 291 288 278 275 271 267 270 264 262 261 263 265 264 263 266 268 258 256 249 245 258 245 250 273 283 285 280 288 277 270 246 247 258 254 263 276 267 267 274 280 271 265 274 277 268 267 265 268 271 270 263 255
290 292 291 289 283 276 269 265 264 263 260 260 262 263 263 259 257 245 231 310 241 204 254 297 301 239 263 278 281 293 295 279 254 255 242 259 253 249 262 268 274 273 275 274 279 293 283 274 271 274 272 271 268 269
288 290 291 289 282 277 271 263 260 261 259 263 263 263 262 262 260 253 256 259 252 246 234 254 260 308 276 269 266 282 270 274 258 258 263 261 267 257 260 261 267 270 272 270 269 271 270 273 274 270 269 270 268 263
286 288 291 290 285 279 272 259 252 253 256 262 266 268 267 256 251 258 269 268 252 236 241 162 157 266 203 233 239 287 267 271 257 238 247 253 254 240 256 257 260 267 268 274 276 270 267 264 267 273 270 263 255 255
296 288 290 294 294 289 266 249 245 252 256 260 261 258 225 230 245 239 213 202 205 213 235 200 223 243 264 290 287 356 261 224 249 242 255 216 249 250 257 267 305 346 335 334 336 301 300 296 288 280 274 269 263 260
290 287 286 290 292 285 283 250 248 254 257 260 204 214 228 214 190 191 162 164 203 262 218 229 230 242 258 248 264 239 247 251 271 263 164 264 249 259 6 349 340 329 329 318 313 303 302 291 297 282 272 270 265 257
284 283 283 278 283 299 275 260 256 251 245 244 241 239 196 189 170 167 162 3 169 218 217 174 219 195 181 200 222 286 306 288 263 281 93 262 18 354 347 340 334 331 330 324 322 311 301 295 286 285 285 276 270 262
285 281 279 281 292 297 307 307 278 256 249 248 220 194 173 185 149 165 197 264 295 221 205 185 218 189 209 230 225 202 231 252 346 239 231 224 353 342 336 332 329 328 328 328 321 318 311 304 300 289 284 285 280 257
285 272 270 274 298 296 287 285 275 269 266 188 182 224 190 177 215 191 199 207 228 14 56 195 251 185 224 73 212 199 242 211 241 237 238 351 341 332 332 330 330 328 328 323 320 323 318 310 304 292 285 272 243 199
301 302 275 285 291 283 298 311 317 247 209 205 217 229 202 221 233 30 258 249 341 346 4 353 293 193 256 228 205 256 263 227 233 257 308 322 322 322 324 325 325 324 323 323 328 327 329 300 268 260 236 219 190 170
279 285 285 289 234 257 277 299 292 284 239 231 227 168 52 59 305 89 23 54 1 341 326 212 242 12 245 209 224 234 278 247 315 292 313 315 316 319 319 320 321 319 317 318 326 329 325 329 35 119 139 140 150 162
276 267 247 260 274 287 282 274 255 210 213 206 242 111 106 70 76 89 41 4 350 350 176 325 240 225 302 252 249 42 275 332 320 309 308 309 311 314 317 318 321 325 329 334 337 341 348 41 133 128 115 122 140 141
275 277 281 293 309 304 277 217 215 229 224 187 149 92 84 78 81 48 12 4 24 26 13 284 325 279 266 282 338 3 310 312 309 307 310 312 316 323 322 321 328 333 336 347 359 22 72 99 105 104 115 125 123 118
282 298 302 273 223 233 248 212 208 209 129 97 98 87 88 87 59 57 40 69 81 65 81 31 50 355 304 306 316 316 315 314 314 314 311 315 321 324 326 334 339 343 351 9 34 53 69 83 96 111 117 117 110 117
290 285 260 259 206 206 228 208 254 102 89 107 102 85 81 79 81 49 52 66 73 53 42 43 112 255 281 294 298 296 298 305 310 312 315 324 331 336 343 354 353 1 25 47 62 78 83 88 92 99 106 110 117 119
282 258 261 163 183 210 78 22 46 52 80 89 120 81 104 84 49 35 37 30 61 40 353 311 308 306 308 310 315 310 303 311 310 305 306 320 336 352 9 21 28 44 54 62 66 68 76 80 87 96 104 105 110 115
215 195 151 164 112 86 79 33 37 16 63 112 95 77 71 58 35 29 42 46 60 326 318 317 316 321 321 327 326 326 323 325 334 347 1 360 10 24 33 35 45 50 57 60 66 71 77 84 92 97 101 104 109 112
134 121 72 43 88 46 3 24 53 19 55 52 67 60 45 58 63 49 76 57 14 344 343 344 349 354 352 0 9 15 13 22 31 34 37 34 43 53 54 55 60 58 62 66 73 78 81 87 91 93 97 101 105 109
101 60 35 39 27 28 1 29 30 25 40 26 47 65 45 40 60 60 74 18 344 358 9 15 16 12 32 33 28 33 43 50 60 60 55 57 45 49 55 57 60 66 71 75 79 82 85 88 91 94 97 101 104 106
89 12 26 5 17 26 32 18 0 18 53 14 52 52 23 359 70 60 44 344 351 1 10 21 32 38 28 42 47 53 58 61 60 63 61 66 74 73 67 63 60 61 63 69 69 73 78 82 84 86 88 90 95 99
69 14 50 351 358 56 3 48 28 8 5 49 33 328 330 68 69 66 6 337 349 5 9 13 13 31 44 46 49 53 57 66 68 65 60 60 60 61 61 58 57 55 56 59 63 67 70 72 76 80 82 81 79 85
54 340 29 29 24 63 52 40 36 47 41 23 354 337 354 72 96 154 313 5 19 28 35 40 51 51 48 49 54 55 57 61 64 64 60 57 57 56 56 55 53 51 54 57 58 59 62 65 69 70 75 83 89 89
69 33 45 343 41 39 106 56 54 32 299 327 297 19 66 152 146 184 153 82 80 74 64 58 56 56 55 53 52 52 56 56 59 65 63 57 57 56 58 58 58 57 55 57 59 58 58 60 62 63 66 67 70 72
39 353 6 19 30 50 63 109 213 12 332 240 149 216 232 232 173 146 136 126 116 100 77 57 46 37 32 32 34 35 37 39 39 46 47 42 40 38 38 37 35 32 30 32 31 34 37 36 37 39 43 48 51 55
360 2 72 52 65 43 22 20 343 345 14 93 167 118 43 145 157 153 149 144 139 120 67 38 26 15 10 7 6 4 12 16 19 23 23 18 13 10 9 8 6 2 358 353 347 340 338 333 327 319 312 307 304 297
346 351 66 51 98 40 340 335 304 326 337 23 42 319 237 209 215 208 200 197 204 228 284 347 348 342 341 342 349 357 1 3 6 7 4 359 353 351 350 349 345 343 343 340 336 328 321 319 315 310 308 306 302 299
13 34 92 57 310 346 353 5 340 279 263 213 243 270 265 257 254 226 229 220 226 235 256 288 321 336 345 349 348 346 350 350 349 348 346 344 342 341 339 337 334 329 326 323 321 319 317 314 310 307 304 303 303 303
1 16 35 11 11 12 358 350 20 359 324 318 305 320 306 271 248 270 274 239 238 246 255 272 281 320 334 337 341 335 334 337 339 339 336 332 328 328 326 324 321 319 317 314 311 308 305 304 304 303 302 301 300 300